Time,TemperatureF,DewpointF,PressureIn,WindDirection,WindDirectionDegrees,WindSpeedMPH,WindSpeedGustMPH,Humidity,HourlyPrecipIn,Conditions,Clouds,dailyrainin,SoftwareType,DateUTC
2013-06-12 00:03:00,73.0,59.0,29.70,WNW,290,3.0,14.0,61,0.00,,,0.82,,2013-06-12 04:03:00,
2013-06-12 00:13:00,73.0,59.0,29.70,WNW,290,3.0,14.0,61,0.00,,,0.82,,2013-06-12 04:13:00,
2013-06-12 00:23:00,73.0,59.0,29.70,WNW,295,3.0,18.0,61,0.00,,,0.76,,2013-06-12 04:23:00,
2013-06-12 00:33:00,72.0,58.0,29.70,NW,325,1.0,15.0,62,0.00,,,0.76,,2013-06-12 04:33:00,
2013-06-12 00:42:00,72.0,58.0,29.70,NW,325,1.0,15.0,62,0.00,,,0.76,,2013-06-12 04:42:00,
2013-06-12 00:53:00,72.0,58.0,29.70,NW,311,4.0,17.0,61,0.00,,,0.76,,2013-06-12 04:53:00,
2013-06-12 01:03:00,72.0,58.0,29.70,NNW,343,1.0,13.0,62,0.00,,,0.76,,2013-06-12 05:03:00,
2013-06-12 01:12:00,72.0,58.0,29.70,NNW,343,1.0,13.0,62,0.00,,,0.76,,2013-06-12 05:12:00,
2013-06-12 01:22:00,72.0,58.0,29.71,WNW,300,2.0,10.0,62,0.00,,,0.15,,2013-06-12 05:22:00,
2013-06-12 01:32:00,72.0,58.0,29.70,NNW,333,3.0,10.0,62,0.00,,,0.15,,2013-06-12 05:32:00,
2013-06-12 01:42:00,72.0,58.0,29.70,NNW,333,3.0,10.0,62,0.00,,,0.15,,2013-06-12 05:42:00,
2013-06-12 01:52:00,72.0,59.0,29.70,West,278,1.0,7.0,63,0.00,,,0.15,,2013-06-12 05:52:00,
2013-06-12 02:02:00,72.0,59.0,29.70,NW,316,1.0,6.0,64,0.00,,,0.15,,2013-06-12 06:02:00,
2013-06-12 02:12:00,72.0,59.0,29.70,NW,316,1.0,6.0,64,0.00,,,0.15,,2013-06-12 06:12:00,
2013-06-12 02:22:00,71.0,60.0,29.69,NW,308,0.0,6.0,68,0.00,,,0.13,,2013-06-12 06:22:00,
2013-06-12 02:32:00,71.0,61.0,29.70,NNW,339,0.0,4.0,71,0.00,,,0.13,,2013-06-12 06:32:00,
2013-06-12 02:42:00,71.0,61.0,29.70,NNW,339,0.0,4.0,71,0.00,,,0.13,,2013-06-12 06:42:00,
2013-06-12 02:52:00,71.0,61.0,29.70,WSW,245,1.0,4.0,71,0.00,,,0.13,,2013-06-12 06:52:00,
2013-06-12 03:02:00,71.0,61.0,29.69,NNW,346,0.0,7.0,71,0.00,,,0.13,,2013-06-12 07:02:00,
2013-06-12 03:12:00,71.0,61.0,29.69,NNW,346,0.0,7.0,71,0.00,,,0.13,,2013-06-12 07:12:00,
2013-06-12 03:22:00,71.0,61.0,29.69,NNW,328,0.0,10.0,70,0.00,,,0.11,,2013-06-12 07:22:00,
2013-06-12 03:33:00,71.0,60.0,29.69,South,169,2.0,9.0,69,0.00,,,0.11,,2013-06-12 07:33:00,
2013-06-12 03:43:00,71.0,60.0,29.69,South,169,2.0,9.0,69,0.00,,,0.11,,2013-06-12 07:43:00,
2013-06-12 03:53:00,71.0,61.0,29.69,SSE,160,0.0,8.0,70,0.00,,,0.11,,2013-06-12 07:53:00,
2013-06-12 04:02:00,70.0,60.0,29.69,NNW,333,1.0,6.0,70,0.00,,,0.11,,2013-06-12 08:02:00,
2013-06-12 04:12:00,70.0,60.0,29.69,NNW,333,1.0,6.0,70,0.00,,,0.11,,2013-06-12 08:12:00,
2013-06-12 04:22:00,70.0,60.0,29.70,NW,315,1.0,5.0,70,0.00,,,0.00,,2013-06-12 08:22:00,
2013-06-12 04:33:00,70.0,60.0,29.70,NW,315,1.0,5.0,70,0.00,,,0.00,,2013-06-12 08:33:00,
2013-06-12 04:43:00,70.0,59.0,29.70,NNW,348,5.0,14.0,69,0.00,,,0.00,,2013-06-12 08:43:00,
2013-06-12 04:53:00,70.0,59.0,29.71,WSW,255,5.0,14.0,68,0.00,,,0.00,,2013-06-12 08:53:00,
2013-06-12 05:01:00,70.0,59.0,29.71,WSW,255,5.0,14.0,68,0.00,,,0.00,,2013-06-12 09:01:00,
2013-06-12 05:11:00,70.0,59.0,29.72,NNW,334,8.0,15.0,67,0.00,,,0.00,,2013-06-12 09:11:00,
2013-06-12 05:22:00,70.0,58.0,29.71,NNW,335,5.0,14.0,65,0.00,,,0.00,,2013-06-12 09:22:00,
2013-06-12 05:33:00,69.0,57.0,29.72,SW,226,3.0,12.0,65,0.00,,,0.00,,2013-06-12 09:33:00,
2013-06-12 05:43:00,69.0,57.0,29.72,SW,226,3.0,12.0,65,0.00,,,0.00,,2013-06-12 09:43:00,
2013-06-12 05:53:00,68.0,56.0,29.72,North,1,6.0,12.0,66,0.00,,,0.00,,2013-06-12 09:53:00,
2013-06-12 06:02:00,68.0,56.0,29.72,North,1,6.0,12.0,66,0.00,,,0.00,,2013-06-12 10:02:00,
2013-06-12 06:12:00,68.0,54.0,29.73,North,1,10.0,18.0,61,0.00,,,0.00,,2013-06-12 10:12:00,
2013-06-12 06:23:00,67.0,53.0,29.73,NW,321,10.0,20.0,60,0.00,,,0.00,,2013-06-12 10:23:00,
2013-06-12 06:33:00,67.0,53.0,29.73,NW,321,10.0,20.0,60,0.00,,,0.00,,2013-06-12 10:33:00,
2013-06-12 06:43:00,67.0,53.0,29.74,North,349,11.0,23.0,60,0.00,,,0.00,,2013-06-12 10:43:00,
2013-06-12 06:53:00,66.0,52.0,29.74,NNW,330,8.0,15.0,61,0.00,,,0.00,,2013-06-12 10:53:00,
2013-06-12 07:02:00,66.0,52.0,29.74,NNW,330,8.0,15.0,61,0.00,,,0.00,,2013-06-12 11:02:00,
2013-06-12 07:12:00,67.0,53.0,29.75,North,354,9.0,19.0,60,0.00,,,0.00,,2013-06-12 11:12:00,
2013-06-12 07:24:00,67.0,53.0,29.75,NNW,336,7.0,19.0,60,0.00,,,0.00,,2013-06-12 11:24:00,
2013-06-12 07:33:00,67.0,52.0,29.75,WNW,300,7.0,20.0,59,0.00,,,0.00,,2013-06-12 11:33:00,
2013-06-12 07:43:00,67.0,52.0,29.75,WNW,300,7.0,20.0,59,0.00,,,0.00,,2013-06-12 11:43:00,
2013-06-12 07:53:00,67.0,52.0,29.76,NNW,340,8.0,21.0,58,0.00,,,0.00,,2013-06-12 11:53:00,
2013-06-12 08:02:00,67.0,52.0,29.76,NNW,340,8.0,21.0,58,0.00,,,0.00,,2013-06-12 12:02:00,
2013-06-12 08:11:00,67.0,51.0,29.75,NNW,347,9.0,16.0,57,0.00,,,0.00,,2013-06-12 12:11:00,
2013-06-12 08:23:00,68.0,52.0,29.76,NW,316,8.0,20.0,57,0.00,,,0.00,,2013-06-12 12:23:00,
2013-06-12 08:33:00,68.0,52.0,29.76,WNW,293,11.0,18.0,56,0.00,,,0.00,,2013-06-12 12:33:00,
2013-06-12 08:43:00,68.0,52.0,29.76,WNW,293,11.0,18.0,56,0.00,,,0.00,,2013-06-12 12:43:00,
2013-06-12 08:53:00,68.0,52.0,29.77,WNW,295,10.0,20.0,57,0.00,,,0.00,,2013-06-12 12:53:00,
2013-06-12 09:02:00,68.0,52.0,29.77,WNW,295,10.0,20.0,57,0.00,,,0.00,,2013-06-12 13:02:00,
2013-06-12 09:12:00,68.0,52.0,29.77,NNW,328,9.0,14.0,56,0.00,,,0.00,,2013-06-12 13:12:00,
2013-06-12 09:22:00,68.0,52.0,29.77,NW,316,9.0,19.0,56,0.00,,,0.00,,2013-06-12 13:22:00,
2013-06-12 09:33:00,68.0,52.0,29.77,NW,316,9.0,19.0,56,0.00,,,0.00,,2013-06-12 13:33:00,
2013-06-12 09:43:00,69.0,52.0,29.77,ENE,67,10.0,22.0,54,0.00,,,0.00,,2013-06-12 13:43:00,
2013-06-12 09:53:00,69.0,53.0,29.77,NW,318,4.0,22.0,56,0.00,,,0.00,,2013-06-12 13:53:00,
2013-06-12 10:02:00,69.0,53.0,29.77,NW,318,4.0,22.0,56,0.00,,,0.00,,2013-06-12 14:02:00,
2013-06-12 10:11:00,70.0,52.0,29.77,NW,304,8.0,20.0,52,0.00,,,0.00,,2013-06-12 14:11:00,
2013-06-12 10:24:00,70.0,52.0,29.77,NW,304,8.0,20.0,52,0.00,,,0.00,,2013-06-12 14:24:00,
2013-06-12 10:33:00,70.0,52.0,29.77,NW,304,8.0,20.0,52,0.00,,,0.00,,2013-06-12 14:33:00,
2013-06-12 10:43:00,70.0,52.0,29.77,NW,304,8.0,20.0,52,0.00,,,0.00,,2013-06-12 14:43:00,
2013-06-12 10:53:00,71.0,52.0,29.77,NNE,12,6.0,20.0,52,0.00,,,0.00,,2013-06-12 14:53:00,
2013-06-12 11:02:00,72.0,52.0,29.77,North,351,7.0,18.0,50,0.00,,,0.00,,2013-06-12 15:02:00,
2013-06-12 11:12:00,72.0,52.0,29.77,North,351,7.0,18.0,50,0.00,,,0.00,,2013-06-12 15:12:00,
2013-06-12 11:23:00,72.0,52.0,29.78,NW,322,9.0,17.0,50,0.00,,,0.00,,2013-06-12 15:23:00,
2013-06-12 11:33:00,73.0,53.0,29.78,North,349,8.0,20.0,49,0.00,,,0.00,,2013-06-12 15:33:00,
2013-06-12 11:43:00,73.0,53.0,29.78,North,349,8.0,20.0,49,0.00,,,0.00,,2013-06-12 15:43:00,
2013-06-12 11:52:00,72.0,52.0,29.78,WNW,300,10.0,19.0,49,0.00,,,0.00,,2013-06-12 15:52:00,
2013-06-12 12:02:00,72.0,52.0,29.78,WNW,300,10.0,19.0,49,0.00,,,0.00,,2013-06-12 16:02:00,
2013-06-12 12:12:00,73.0,52.0,29.78,North,357,8.0,18.0,48,0.00,,,0.00,,2013-06-12 16:12:00,
2013-06-12 12:22:00,73.0,52.0,29.78,NW,326,6.0,13.0,48,0.00,,,0.00,,2013-06-12 16:22:00,
2013-06-12 12:33:00,74.0,53.0,29.78,NW,326,6.0,16.0,48,0.00,,,0.00,,2013-06-12 16:33:00,
2013-06-12 12:43:00,74.0,53.0,29.78,NW,326,6.0,16.0,48,0.00,,,0.00,,2013-06-12 16:43:00,
2013-06-12 12:53:00,75.0,53.0,29.78,NNW,343,8.0,19.0,46,0.00,,,0.00,,2013-06-12 16:53:00,
2013-06-12 13:02:00,75.0,53.0,29.78,NW,325,8.0,20.0,46,0.00,,,0.00,,2013-06-12 17:02:00,
2013-06-12 13:12:00,75.0,53.0,29.78,NW,325,8.0,20.0,46,0.00,,,0.00,,2013-06-12 17:12:00,
2013-06-12 13:23:00,76.0,52.0,29.78,NNW,336,6.0,21.0,44,0.00,,,0.00,,2013-06-12 17:23:00,
2013-06-12 13:33:00,76.0,52.0,29.78,NNW,336,6.0,21.0,44,0.00,,,0.00,,2013-06-12 17:33:00,
2013-06-12 13:42:00,76.0,52.0,29.78,NNW,337,7.0,18.0,44,0.00,,,0.00,,2013-06-12 17:42:00,
2013-06-12 13:52:00,77.0,53.0,29.78,NNW,331,8.0,20.0,43,0.00,,,0.00,,2013-06-12 17:52:00,
2013-06-12 14:02:00,77.0,53.0,29.78,NW,325,6.0,18.0,44,0.00,,,0.00,,2013-06-12 18:02:00,
2013-06-12 14:12:00,77.0,53.0,29.78,NW,325,6.0,18.0,44,0.00,,,0.00,,2013-06-12 18:12:00,
2013-06-12 14:22:00,77.0,53.0,29.78,NW,325,6.0,18.0,44,0.00,,,0.00,,2013-06-12 18:22:00,
2013-06-12 14:33:00,77.0,53.0,29.78,NW,325,6.0,18.0,44,0.00,,,0.00,,2013-06-12 18:33:00,
2013-06-12 14:43:00,78.0,53.0,29.78,North,1,10.0,18.0,42,0.00,,,0.00,,2013-06-12 18:43:00,
2013-06-12 14:53:00,78.0,53.0,29.78,NW,322,11.0,18.0,42,0.00,,,0.00,,2013-06-12 18:53:00,
2013-06-12 15:02:00,77.0,53.0,29.78,NNE,19,6.0,14.0,44,0.00,,,0.00,,2013-06-12 19:02:00,
2013-06-12 15:11:00,77.0,53.0,29.78,NNE,19,6.0,14.0,44,0.00,,,0.00,,2013-06-12 19:11:00,
2013-06-12 15:22:00,78.0,54.0,29.78,WNW,288,7.0,15.0,43,0.00,,,0.00,,2013-06-12 19:22:00,
2013-06-12 15:32:00,78.0,54.0,29.78,WNW,288,7.0,15.0,43,0.00,,,0.00,,2013-06-12 19:32:00,
2013-06-12 15:42:00,78.0,54.0,29.78,WNW,288,7.0,15.0,43,0.00,,,0.00,,2013-06-12 19:42:00,
2013-06-12 15:52:00,78.0,53.0,29.78,WNW,298,7.0,14.0,42,0.00,,,0.00,,2013-06-12 19:52:00,
2013-06-12 16:02:00,78.0,53.0,29.78,WNW,298,7.0,14.0,42,0.00,,,0.00,,2013-06-12 20:02:00,
2013-06-12 16:11:00,78.0,53.0,29.78,WNW,298,7.0,14.0,42,0.00,,,0.00,,2013-06-12 20:11:00,
2013-06-12 16:22:00,77.0,53.0,29.78,West,271,7.0,18.0,43,0.00,,,0.00,,2013-06-12 20:22:00,
2013-06-12 16:32:00,78.0,53.0,29.78,WNW,285,4.0,14.0,42,0.00,,,0.00,,2013-06-12 20:32:00,
2013-06-12 16:43:00,78.0,53.0,29.78,WNW,285,4.0,14.0,42,0.00,,,0.00,,2013-06-12 20:43:00,
2013-06-12 16:54:00,78.0,53.0,29.78,WNW,285,4.0,14.0,42,0.00,,,0.00,,2013-06-12 20:54:00,
2013-06-12 17:01:00,78.0,53.0,29.78,WNW,285,4.0,14.0,42,0.00,,,0.00,,2013-06-12 21:01:00,
2013-06-12 17:12:00,78.0,53.0,29.78,WNW,285,4.0,14.0,42,0.00,,,0.00,,2013-06-12 21:12:00,
2013-06-12 17:22:00,78.0,52.0,29.78,NNW,330,6.0,16.0,41,0.00,,,0.00,,2013-06-12 21:22:00,
2013-06-12 17:33:00,78.0,52.0,29.78,NNW,330,6.0,16.0,41,0.00,,,0.00,,2013-06-12 21:33:00,
2013-06-12 17:43:00,78.0,52.0,29.79,NNW,334,6.0,12.0,40,0.00,,,0.00,,2013-06-12 21:43:00,
2013-06-12 17:53:00,78.0,52.0,29.80,NNE,19,5.0,14.0,41,0.00,,,0.00,,2013-06-12 21:53:00,
2013-06-12 18:01:00,78.0,53.0,29.80,North,356,4.0,15.0,42,0.00,,,0.00,,2013-06-12 22:01:00,
2013-06-12 18:11:00,78.0,53.0,29.80,North,356,4.0,15.0,42,0.00,,,0.00,,2013-06-12 22:11:00,
2013-06-12 18:22:00,78.0,52.0,29.79,NW,306,5.0,12.0,41,0.00,,,0.00,,2013-06-12 22:22:00,
2013-06-12 18:32:00,78.0,52.0,29.79,NW,306,5.0,12.0,41,0.00,,,0.00,,2013-06-12 22:32:00,
2013-06-12 18:43:00,78.0,52.0,29.79,NW,306,5.0,12.0,41,0.00,,,0.00,,2013-06-12 22:43:00,
2013-06-12 18:53:00,78.0,53.0,29.79,NNW,342,5.0,12.0,42,0.00,,,0.00,,2013-06-12 22:53:00,
2013-06-12 19:02:00,78.0,52.0,29.79,North,350,3.0,11.0,41,0.00,,,0.00,,2013-06-12 23:02:00,
2013-06-12 19:12:00,78.0,52.0,29.79,North,350,3.0,11.0,41,0.00,,,0.00,,2013-06-12 23:12:00,
2013-06-12 19:22:00,78.0,52.0,29.79,North,8,5.0,10.0,41,0.00,,,0.00,,2013-06-12 23:22:00,
2013-06-12 19:32:00,78.0,52.0,29.80,NW,325,4.0,11.0,41,0.00,,,0.00,,2013-06-12 23:32:00,
2013-06-12 19:42:00,78.0,52.0,29.80,NW,325,4.0,11.0,41,0.00,,,0.00,,2013-06-12 23:42:00,
2013-06-12 19:53:00,77.0,52.0,29.80,NNE,26,4.0,10.0,42,0.00,,,0.00,,2013-06-12 23:53:00,
2013-06-12 20:02:00,77.0,52.0,29.81,NNW,333,3.0,10.0,42,0.00,,,0.00,,2013-06-13 00:02:00,
2013-06-12 20:12:00,77.0,52.0,29.81,NNW,333,3.0,10.0,42,0.00,,,0.00,,2013-06-13 00:12:00,
2013-06-12 20:22:00,76.0,52.0,29.81,North,352,5.0,9.0,43,0.00,,,0.00,,2013-06-13 00:22:00,
2013-06-12 20:32:00,76.0,52.0,29.81,North,352,5.0,9.0,43,0.00,,,0.00,,2013-06-13 00:32:00,
2013-06-12 20:42:00,76.0,52.0,29.81,North,352,5.0,9.0,43,0.00,,,0.00,,2013-06-13 00:42:00,
2013-06-12 20:52:00,75.0,52.0,29.82,WNW,285,3.0,10.0,45,0.00,,,0.00,,2013-06-13 00:52:00,
2013-06-12 21:01:00,75.0,52.0,29.83,NNW,337,2.0,7.0,45,0.00,,,0.00,,2013-06-13 01:01:00,
2013-06-12 21:12:00,75.0,52.0,29.83,NNW,337,2.0,7.0,45,0.00,,,0.00,,2013-06-13 01:12:00,
2013-06-12 21:22:00,75.0,53.0,29.83,NE,34,2.0,9.0,46,0.00,,,0.00,,2013-06-13 01:22:00,
2013-06-12 21:33:00,75.0,53.0,29.83,NE,34,2.0,9.0,46,0.00,,,0.00,,2013-06-13 01:33:00,
2013-06-12 21:43:00,75.0,53.0,29.83,NE,34,2.0,9.0,46,0.00,,,0.00,,2013-06-13 01:43:00,
2013-06-12 21:53:00,75.0,53.0,29.82,NNW,342,1.0,5.0,46,0.00,,,0.00,,2013-06-13 01:53:00,
2013-06-12 22:02:00,75.0,53.0,29.83,NNE,16,1.0,5.0,46,0.00,,,0.00,,2013-06-13 02:02:00,
2013-06-12 22:12:00,75.0,53.0,29.83,NNE,16,1.0,5.0,46,0.00,,,0.00,,2013-06-13 02:12:00,
2013-06-12 22:22:00,74.0,52.0,29.83,NE,54,1.0,5.0,47,0.00,,,0.00,,2013-06-13 02:22:00,
2013-06-12 22:33:00,74.0,52.0,29.83,NE,54,1.0,5.0,47,0.00,,,0.00,,2013-06-13 02:33:00,
2013-06-12 22:43:00,74.0,52.0,29.83,NE,54,1.0,5.0,47,0.00,,,0.00,,2013-06-13 02:43:00,
2013-06-12 22:52:00,74.0,52.0,29.82,NNW,340,1.0,6.0,47,0.00,,,0.00,,2013-06-13 02:52:00,
2013-06-12 23:02:00,74.0,52.0,29.82,NNW,340,2.0,4.0,47,0.00,,,0.00,,2013-06-13 03:02:00,
2013-06-12 23:12:00,74.0,52.0,29.82,NNW,340,2.0,4.0,47,0.00,,,0.00,,2013-06-13 03:12:00,
2013-06-12 23:22:00,74.0,52.0,29.82,NW,322,1.0,3.0,47,0.00,,,0.00,,2013-06-13 03:22:00,
2013-06-12 23:33:00,73.0,53.0,29.82,North,349,0.0,2.0,49,0.00,,,0.00,,2013-06-13 03:33:00,
2013-06-12 23:43:00,73.0,53.0,29.82,North,349,0.0,2.0,49,0.00,,,0.00,,2013-06-13 03:43:00,
2013-06-12 23:52:00,73.0,53.0,29.82,North,349,0.0,2.0,49,0.00,,,0.00,,2013-06-13 03:52:00,